�������r�C�����j�^�v���󋵏��
Date,Time,5�C6���@���p�r�C��,����,����(m/s)
2021/09/08,00:00,3.8,-,CALM
2021/09/08,00:10,3.9,-,CALM
2021/09/08,00:20,3.8,���쐼,0.6
2021/09/08,00:30,3.8,-,CALM
2021/09/08,00:40,4.1,�쐼,0.8
2021/09/08,00:50,3.7,�쐼,1.2
2021/09/08,01:00,3.8,�쐼,1.4
2021/09/08,01:10,3.9,��쐼,1.5
2021/09/08,01:20,4.0,�쐼,2.8
2021/09/08,01:30,3.9,�쐼,3.8
2021/09/08,01:40,3.7,�쐼,3.6
2021/09/08,01:50,3.9,���쐼,1.9
2021/09/08,02:00,3.9,��쐼,1.1
2021/09/08,02:10,3.8,��쐼,1.1
2021/09/08,02:20,3.7,��쐼,1.4
2021/09/08,02:30,3.9,�쐼,1.2
2021/09/08,02:40,4.0,��,0.6
2021/09/08,02:50,3.8,-,CALM
2021/09/08,03:00,4.0,�쐼,1.4
2021/09/08,03:10,3.9,��쐼,1.7
2021/09/08,03:20,3.9,�쐼,2.2
2021/09/08,03:30,3.8,��쐼,2.2
2021/09/08,03:40,3.9,��쐼,2.0
2021/09/08,03:50,3.8,��쐼,1.5
2021/09/08,04:00,3.8,��,1.5
2021/09/08,04:10,3.9,��,1.2
2021/09/08,04:20,4.1,��,0.9
2021/09/08,04:30,3.8,��쓌,1.1
2021/09/08,04:40,4.1,-,CALM
2021/09/08,04:50,3.9,��,1.2
2021/09/08,05:00,3.9,�쐼,0.6
2021/09/08,05:10,3.9,�쐼,0.9
2021/09/08,05:20,4.0,�쐼,1.7
2021/09/08,05:30,3.6,�쐼,2.0
2021/09/08,05:40,3.9,�쐼,2.2
2021/09/08,05:50,4.0,��쐼,2.0
2021/09/08,06:00,4.0,��,2.0
2021/09/08,06:10,3.9,��쐼,1.5
2021/09/08,06:20,3.8,��쐼,2.3
2021/09/08,06:30,3.8,�쐼,2.2
2021/09/08,06:40,3.9,��쐼,1.7
2021/09/08,06:50,3.9,��,1.2
2021/09/08,07:00,4.0,��,1.5
2021/09/08,07:10,3.8,��,1.5
2021/09/08,07:20,3.9,��쐼,2.0
2021/09/08,07:30,3.9,��,2.0
2021/09/08,07:40,3.9,��,1.1
2021/09/08,07:50,3.8,��쓌,1.7
2021/09/08,08:00,3.9,��,1.4
2021/09/08,08:10,3.9,��쐼,1.5
2021/09/08,08:20,3.9,��쐼,1.2
2021/09/08,08:30,3.9,��,1.1
2021/09/08,08:40,3.8,��쓌,0.9
2021/09/08,08:50,3.8,��쐼,1.5
2021/09/08,09:00,3.7,��쐼,1.7
2021/09/08,09:10,4.0,��쐼,2.2
2021/09/08,09:20,3.9,��,2.0
2021/09/08,09:30,3.8,��쓌,2.5
2021/09/08,09:40,3.9,��쓌,2.2
2021/09/08,09:50,4.0,�쓌,3.3
2021/09/08,10:00,3.8,��쓌,3.9
2021/09/08,10:10,3.8,��쓌,4.2
2021/09/08,10:20,4.0,��쓌,3.9
2021/09/08,10:30,3.8,��,4.0
2021/09/08,10:40,3.8,��,3.9
2021/09/08,10:50,3.9,��,3.6
2021/09/08,11:00,3.9,��쓌,3.6
2021/09/08,11:10,4.0,��,3.6
2021/09/08,11:20,4.0,��,4.9
2021/09/08,11:30,4.1,��,4.9
2021/09/08,11:40,3.9,��,5.2
2021/09/08,11:50,3.9,��,5.6
2021/09/08,12:00,3.9,��,4.9
2021/09/08,12:10,3.7,��,5.8
2021/09/08,12:20,3.8,��,5.8
2021/09/08,12:30,4.0,��,5.0
2021/09/08,12:40,3.8,��,4.8
2021/09/08,12:50,3.9,��,5.3
2021/09/08,13:00,3.9,��,4.5
2021/09/08,13:10,3.9,��,4.9
2021/09/08,13:20,3.9,��,4.4
2021/09/08,13:30,3.9,��,4.4
2021/09/08,13:40,3.9,��,4.2
2021/09/08,13:50,3.8,��,4.6
2021/09/08,14:00,4.0,��,3.9
2021/09/08,14:10,3.9,��,3.0
2021/09/08,14:20,3.9,��쐼,2.8
2021/09/08,14:30,3.9,��쐼,2.3
2021/09/08,14:40,3.8,��쐼,3.0
2021/09/08,14:50,3.8,��쐼,3.5
2021/09/08,15:00,3.8,��,3.2
2021/09/08,15:10,4.0,��,5.2
2021/09/08,15:20,3.9,��,5.3
2021/09/08,15:30,3.9,��,5.7
2021/09/08,15:40,4.0,��,5.8
2021/09/08,15:50,3.7,��,5.8
2021/09/08,16:00,4.0,��,6.1
2021/09/08,16:10,3.8,��,5.8
2021/09/08,16:20,4.0,��,4.8
2021/09/08,16:30,4.0,��,5.4
2021/09/08,16:40,3.9,��,5.4
2021/09/08,16:50,3.8,��쐼,5.5
2021/09/08,17:00,4.0,��,8.3
2021/09/08,17:10,3.9,��쐼,8.6
2021/09/08,17:20,3.9,��쐼,7.5
2021/09/08,17:30,4.0,��쐼,6.4
2021/09/08,17:40,3.8,��쐼,5.2
2021/09/08,17:50,3.8,��,5.8
2021/09/08,18:00,4.1,��,6.2
2021/09/08,18:10,3.9,��,6.1
2021/09/08,18:20,4.0,��,6.3
2021/09/08,18:30,3.9,��,6.5
2021/09/08,18:40,3.9,��,7.7
2021/09/08,18:50,3.9,��,8.3
2021/09/08,19:00,4.1,��,8.4
2021/09/08,19:10,3.7,��,9.3
2021/09/08,19:20,3.8,��쐼,8.2
2021/09/08,19:30,3.9,��,8.1
2021/09/08,19:40,4.0,��,8.2
2021/09/08,19:50,3.9,��,7.7
2021/09/08,20:00,3.9,��,6.5
2021/09/08,20:10,3.8,��,7.7
2021/09/08,20:20,3.8,��,9.0
2021/09/08,20:30,3.9,��,9.8
2021/09/08,20:40,4.0,��,10.3
2021/09/08,20:50,3.9,��쐼,9.7
2021/09/08,21:00,3.8,��쐼,9.1
2021/09/08,21:10,3.9,��쐼,8.2
2021/09/08,21:20,4.0,��,7.2
2021/09/08,21:30,3.9,��,7.4
2021/09/08,21:40,3.9,��,7.4
2021/09/08,21:50,3.8,��,6.6
2021/09/08,22:00,3.9,��,7.9
2021/09/08,22:10,3.8,��,6.6
2021/09/08,22:20,3.8,��,8.1
2021/09/08,22:30,3.9,��,6.0
2021/09/08,22:40,3.8,��,7.9
2021/09/08,22:50,3.8,��,9.1
2021/09/08,23:00,3.8,��,9.0
2021/09/08,23:10,4.2,��,8.6
2021/09/08,23:20,3.8,��,8.1
2021/09/08,23:30,3.9,��,6.7
2021/09/08,23:40,3.7,��,7.9
2021/09/08,23:50,3.8,��,7.9
